TimeEST,TemperatureF,Dew PointF,Humidity,Sea Level PressureIn,VisibilityMPH,Wind Direction,Wind SpeedMPH,Gust SpeedMPH,PrecipitationIn,Events,Conditions,WindDirDegrees,DateUTC
12:49 AM,26.6,17.6,69,30.08,10.0,Calm,Calm,-,N/A,,Scattered Clouds,0,2012-11-06 05:49:00
12:54 AM,27.0,18.0,69,30.16,10.0,Calm,Calm,-,N/A,,Partly Cloudy,0,2012-11-06 05:54:00
1:54 AM,27.0,18.0,69,30.15,10.0,Calm,Calm,-,N/A,,Clear,0,2012-11-06 06:54:00
2:54 AM,25.0,18.0,75,30.14,10.0,Calm,Calm,-,N/A,,Clear,0,2012-11-06 07:54:00
3:54 AM,24.1,18.0,77,30.13,10.0,Calm,Calm,-,N/A,,Clear,0,2012-11-06 08:54:00
4:54 AM,24.1,17.1,75,30.13,10.0,ESE,3.5,-,N/A,,Clear,110,2012-11-06 09:54:00
5:54 AM,24.1,17.1,75,30.13,10.0,ESE,4.6,-,N/A,,Clear,120,2012-11-06 10:54:00
6:54 AM,24.1,17.1,75,30.13,10.0,SE,5.8,-,N/A,,Clear,130,2012-11-06 11:54:00
7:54 AM,26.1,19.0,75,30.14,10.0,SE,8.1,-,N/A,,Clear,130,2012-11-06 12:54:00
8:54 AM,28.9,19.9,69,30.13,10.0,SE,13.8,18.4,N/A,,Clear,140,2012-11-06 13:54:00
9:54 AM,30.9,19.9,64,30.13,10.0,SE,11.5,19.6,N/A,,Clear,140,2012-11-06 14:54:00
10:54 AM,33.1,21.9,64,30.13,10.0,ESE,12.7,-,N/A,,Clear,120,2012-11-06 15:54:00
11:54 AM,36.0,21.9,57,30.11,10.0,SE,9.2,-,N/A,,Clear,130,2012-11-06 16:54:00
12:54 PM,37.0,21.9,54,30.07,10.0,SSE,10.4,-,N/A,,Clear,160,2012-11-06 17:54:00
1:54 PM,37.0,21.0,52,30.06,10.0,SSE,6.9,-,N/A,,Clear,160,2012-11-06 18:54:00
2:54 PM,37.9,21.9,53,30.05,10.0,SE,9.2,-,N/A,,Clear,130,2012-11-06 19:54:00
3:54 PM,36.0,21.0,55,30.05,10.0,ESE,6.9,-,N/A,,Clear,120,2012-11-06 20:54:00
4:54 PM,34.0,21.9,61,30.04,10.0,Calm,Calm,-,N/A,,Clear,0,2012-11-06 21:54:00
5:54 PM,32.0,21.0,64,30.06,10.0,ESE,4.6,-,N/A,,Clear,110,2012-11-06 22:54:00
6:54 PM,30.0,21.0,69,30.06,10.0,ESE,8.1,-,N/A,,Clear,120,2012-11-06 23:54:00
7:54 PM,28.9,21.0,72,30.04,10.0,ESE,5.8,-,N/A,,Clear,110,2012-11-07 00:54:00
8:54 PM,28.0,21.0,75,30.02,10.0,ESE,3.5,-,N/A,,Clear,110,2012-11-07 01:54:00
9:54 PM,28.0,19.9,72,30.02,10.0,SE,4.6,-,N/A,,Clear,130,2012-11-07 02:54:00
10:54 PM,26.1,19.9,78,30.02,10.0,SSE,4.6,-,N/A,,Clear,150,2012-11-07 03:54:00
11:54 PM,26.1,19.9,78,30.01,10.0,SSE,4.6,-,N/A,,Clear,150,2012-11-07 04:54:00